Forside
METAR-TAF:

METAR-TAF

Lufthavne :

Stevens Point Municipal Airport

Stevens Point, Wisconsin, USA

Breddekreds: 44-32-42N, længdekreds: 089-31-49W, højde: 338 m

Aktuelle vejr

Denne rapport blev lavet for 5 minutter siden, kl. 14:55 UTC
Vind 6 kt fra vestsydvest
Temperatur 12°C
Fugtighed 50%
Tryk 1007 hPa
Sigt: 16.1 km
skyfri

METAR: KSTE 081455Z AUTO 24006KT 10SM CLR 12/02 A2975 RMK AO2 T01200020

Tid: 10:00 (15:00 UTC)


TAF: fraværende

Vejrobservationer og prognoser fra mere end 4000 lufthavne (METAR og TAF).

De gule og røde prikker repræsenterer de meteorologiske stationer.

Flyt musen over at se navnet på stationen.

Så klik over at se vejr observationer og prognoser.

At skifte det kort: Klik på de grønne knapper med et sort kors for at zoome ind; på den grønne knap med en bindestreg for at zoome ud; eller på de grønne pile for tilstødende kort.


METAR-TAF: